[[{"header":{"parameterUnit":"m.s-1","parameterCategory":2,"la1":30.2991,"la2":30.254,"lo1":-89.0895,"lo2":-89.0444,"dy":0.0017,"dx":0.0017,"nx":28,"ny":28,"refTime":"2024-12-06T09:00:00:Z","depth":"0","parameterNumber":2,"parameterNumberName":"U-component_of_CURRENTS"},"data":[0,0,0,0,0,0,0,0,0,0,0,0,0,0,0,0,0,0,0,0,0,0,0,0,0,0,0,0,0,0,0,0,0,0,0,0,0,0,0,0,0,0,0,0,0,0,0,0,0,0,0,0,0,0,0,0,0,0,0.204,0.204,0,0.2028,0.2028,0.2028,0.2018,0.2019,0.2019,0.2019,0.1999,0.1999,0.1998,0,0,0,0,0,0,0,0,0,0,0,0,0,0.2061,0.2061,0.204,0.204,0.204,0.2028,0.2028,0.2028,0.2018,0.2019,0.2019,0.2019,0.1999,0.1999,0.1998,0,0,0,0,0,0,0,0,0,0,0,0,0,0.2049,0.206,0.204,0.2035,0.2035,0.2028,0.2028,0.2028,0.2018,0.2019,0.2019,0.2019,0.2,0.1999,0.1998,0.1991,0,0,0.1995,0.1995,0,0,0,0,0,0,0,0,0.205,0.2048,0.2036,0.2035,0.2035,0.2026,0.2029,0.2015,0.2018,0.2023,0.2019,0.2019,0.2009,0.2007,0.2002,0.199,0.1989,0.1995,0.1995,0.1994,0.1994,0,0,0,0,0,0,0,0.2051,0.2049,0.2033,0.2036,0.2035,0.2036,0.2034,0.2026,0.2014,0.2022,0.2022,0.2024,0.2008,0.2003,0.2002,0.1989,0.1995,0.1994,0.1994,0.1993,0.1998,0.1999,0,0,0,0,0,0,0.2055,0.2049,0.2034,0.2033,0.2045,0.2036,0.2034,0.2028,0.2014,0.2013,0.2024,0.2023,0.2005,0.2003,0.2001,0.2019,0.1994,0.1993,0.1993,0.1998,0.1998,0.1999,0,0,0,0,0,0,0.2055,0.2053,0.2034,0.2043,0.2041,0.2036,0.2029,0.2027,0.2027,0.2015,0.2013,0.2025,0.2005,0.2002,0.2001,0.2018,0.1993,0.1992,0.1997,0.1998,0.1999,0.2038,0,0,0,0,0,0,0.2056,0.2053,0.205,0.2043,0.2041,0.2039,0.2029,0.2027,0.2028,0.2028,0.2016,0.2014,0.2004,0.2003,0.2,0.2016,0.1992,0.1996,0.1997,0.1998,0.2036,0.2041,0.2044,0,0,0,0,0,0.2057,0.2049,0.2049,0.2047,0.2035,0.204,0.2039,0.2034,0.2028,0.2033,0.2024,0.2014,0.2009,0.2002,0.2,0.2015,0.1995,0.1997,0.1998,0.2034,0.204,0.2044,0,0,0,0,0,0,0.2045,0.2048,0.2047,0.2038,0.2045,0.2039,0.204,0.2037,0.2033,0.2031,0.2018,0.2016,0.2022,0.2012,0.2005,0.2021,0.2002,0.2003,0.2031,0.2036,0.204,0.2038,0.1991,0,0,0,0,0,0.2045,0.2045,0.2048,0.2041,0.2047,0.2044,0.2045,0.2044,0.2041,0.2039,0.203,0.2024,0.2025,0.2025,0.202,0.2025,0.2031,0.2035,0.2039,0.2042,0.204,0.2067,0.2073,0.2004,0.2004,0.2004,0,0,0.2034,0.2039,0.2035,0.2041,0.2043,0.2052,0.2044,0.2049,0.2055,0.2037,0.2038,0.2035,0.2029,0.2038,0.204,0.2032,0.2068,0.2044,0.2047,0.2043,0.2069,0.2076,0.2082,0.2005,0.2005,0.2004,0,0,0.2025,0.2024,0.2028,0.2039,0.2052,0.2055,0.206,0.2061,0.2063,0.2065,0.2059,0.2067,0.2058,0.2064,0.2065,0.2087,0.2087,0.2088,0.2108,0.2135,0.2141,0.2146,0.2175,0.2182,0.2091,0.2091,0.2092,0,0.2014,0.202,0.2029,0.2042,0.2051,0.206,0.2069,0.2074,0.2073,0.208,0.2071,0.2079,0.2072,0.2095,0.2102,0.2097,0.2112,0.2091,0.2141,0.2146,0.2151,0.2179,0.2186,0.2094,0.2093,0.2093,0.2093,0,0.2015,0.2022,0.2027,0.2049,0.206,0.207,0.2085,0.2096,0.2098,0.2102,0.2121,0.2117,0.2126,0.2129,0.2118,0.2154,0.2154,0.2143,0.213,0.216,0.2188,0.2195,0.2097,0.2096,0.2095,0.2095,0,0,0.1978,0.202,0.2021,0.2039,0.2066,0.2076,0.2096,0.212,0.2139,0.2141,0.2166,0.2169,0.2172,0.2173,0.2173,0.219,0.2238,0.2181,0.2181,0.2211,0.2304,0.2321,0.233,0.224,0.2241,0.2242,0.2315,0,0.1977,0.2006,0.2026,0.2051,0.2068,0.2092,0.2113,0.2136,0.2155,0.2181,0.2191,0.221,0.219,0.2202,0.2218,0.2235,0.2257,0.222,0.2267,0.2269,0.2282,0.2339,0.2304,0.2367,0.2322,0.2323,0.2324,0,0.1972,0.1996,0.2021,0.2067,0.2076,0.209,0.2136,0.2157,0.2201,0.2217,0.2243,0.2254,0.2286,0.226,0.2309,0.2288,0.2297,0.2304,0.2308,0.2311,0.2299,0.2326,0.2382,0.2355,0.2335,0.2334,0.2334,0,0.1951,0.1992,0.2014,0.2028,0.2077,0.2092,0.2119,0.2164,0.2193,0.2245,0.2276,0.2309,0.234,0.2353,0.2374,0.2347,0.243,0.2395,0.2419,0.242,0.2393,0.239,0.2427,0.2427,0.2427,0.2427,0.2427,0,0.1943,0.196,0.2006,0.2018,0.2047,0.2085,0.2119,0.2156,0.2214,0.226,0.2293,0.2343,0.2365,0.2414,0.2409,0.2455,0.2464,0.2437,0.2446,0.2407,0.2404,0.2379,0.2353,0.243,0.2429,0.2428,0.2428,0,0.1912,0.1945,0.1973,0.2022,0.2037,0.2056,0.2114,0.2147,0.2208,0.2274,0.2296,0.2386,0.2459,0.2485,0.2529,0.2515,0.2495,0.2551,0.2508,0.251,0.2487,0.2464,0.2419,0.2323,0.2585,0.2586,0.2587,0,0.1898,0.1911,0.1962,0.198,0.2,0.2035,0.2062,0.2129,0.2176,0.2302,0.2342,0.2444,0.2515,0.2604,0.2616,0.2641,0.2541,0.2601,0.2533,0.2501,0.2482,0.2379,0.2292,0.2516,0.2516,0.2516,0.2517,0,0.1872,0.1891,0.1917,0.1952,0.1979,0.2008,0.2062,0.2094,0.219,0.2258,0.237,0.2441,0.2572,0.2607,0.266,0.2658,0.251,0.2604,0.258,0.2447,0.2327,0.2234,0.2455,0.2518,0.2518,0.2517,0.2517,0.2517,0.1848,0.1856,0.1892,0.192,0.1951,0.1973,0.1972,0.205,0.2113,0.2209,0.2332,0.243,0.256,0.2646,0.2627,0.2614,0.2536,0.2544,0.2527,0.2431,0.2312,0.2544,0.2609,0.2609,0.261,0.261,0.261,0,0.1808,0.1829,0.1859,0.1881,0.1884,0.1918,0.1963,0.1958,0.2003,0.215,0.2236,0.241,0.2488,0.2565,0.2624,0.2552,0.2405,0.2488,0.2331,0.2247,0.2484,0.2457,0.248,0.248,0.248,0.248,0.248,0.248,0.1789,0.1796,0.1811,0.1802,0.1813,0.1785,0.1785,0.1808,0.1889,0.2006,0.2126,0.2251,0.2484,0.2657,0.263,0.2554,0.2321,0.2275,0.2194,0.2392,0.2395,0.2397,0.2367,0.2371,0.2371,0.1875,0.1872,0.1869]},{"header":{"parameterUnit":"m.s-1","parameterCategory":2,"la1":30.2991,"la2":30.254,"lo1":-89.0895,"lo2":-89.0444,"dy":0.0017,"dx":0.0017,"nx":28,"ny":28,"refTime":"2024-12-06T09:00:00:Z","depth":"0","parameterNumber":3,"parameterNumberName":"V-component_of_CURRENTS"},"data":[0,0,0,0,0,0,0,0,0,0,0,0,0,0,0,0,0,0,0,0,0,0,0,0,0,0,0,0,0,0,0,0,0,0,0,0,0,0,0,0,0,0,0,0,0,0,0,0,0,0,0,0,0,0,0,0,0,0,-0.0293,-0.0293,0,-0.0313,-0.0313,-0.0313,-0.0332,-0.0332,-0.0332,-0.0332,-0.0361,-0.0362,-0.0362,0,0,0,0,0,0,0,0,0,0,0,0,0,-0.0306,-0.0305,-0.0293,-0.0293,-0.0294,-0.0313,-0.0313,-0.0314,-0.0332,-0.0332,-0.0332,-0.0332,-0.0361,-0.0362,-0.0362,0,0,0,0,0,0,0,0,0,0,0,0,0,-0.0311,-0.0305,-0.0293,-0.0305,-0.0306,-0.0313,-0.0313,-0.0314,-0.0331,-0.0332,-0.0332,-0.0332,-0.0361,-0.0362,-0.0363,-0.0363,0,0,-0.0365,-0.0366,0,0,0,0,0,0,0,0,-0.0311,-0.031,-0.0303,-0.0304,-0.0305,-0.032,-0.0328,-0.0331,-0.0331,-0.0322,-0.0332,-0.0332,-0.0348,-0.035,-0.0353,-0.0365,-0.0366,-0.0365,-0.0366,-0.0366,-0.0367,0,0,0,0,0,0,0,-0.031,-0.031,-0.0302,-0.0303,-0.0304,-0.032,-0.0321,-0.0329,-0.0334,-0.0323,-0.0324,-0.0325,-0.0348,-0.0352,-0.0354,-0.0366,-0.0365,-0.0366,-0.0367,-0.0367,-0.0375,-0.0375,0,0,0,0,0,0,-0.0304,-0.0309,-0.0301,-0.0302,-0.0308,-0.032,-0.0321,-0.0315,-0.0334,-0.0337,-0.0325,-0.0326,-0.0351,-0.0353,-0.0355,-0.0346,-0.0366,-0.0367,-0.0368,-0.0376,-0.0375,-0.0375,0,0,0,0,0,0,-0.0304,-0.0303,-0.03,-0.0306,-0.0307,-0.0319,-0.0313,-0.0315,-0.0319,-0.0335,-0.0338,-0.0326,-0.0351,-0.0354,-0.0358,-0.0348,-0.0368,-0.0369,-0.0376,-0.0376,-0.0375,-0.0335,0,0,0,0,0,0,-0.0304,-0.0303,-0.0298,-0.0305,-0.0306,-0.0298,-0.0313,-0.0316,-0.0319,-0.032,-0.0336,-0.034,-0.0351,-0.0356,-0.0358,-0.0349,-0.0369,-0.0376,-0.0376,-0.0375,-0.0337,-0.0333,-0.033,0,0,0,0,0,-0.0305,-0.0292,-0.0297,-0.0296,-0.0298,-0.0297,-0.0299,-0.031,-0.0318,-0.0315,-0.0327,-0.0339,-0.0354,-0.0356,-0.0359,-0.035,-0.0377,-0.0376,-0.0375,-0.0338,-0.0334,-0.033,0,0,0,0,0,0,-0.0291,-0.0293,-0.0299,-0.0287,-0.029,-0.03,-0.0297,-0.0307,-0.0314,-0.0315,-0.0334,-0.0337,-0.0338,-0.035,-0.0352,-0.0351,-0.0368,-0.0367,-0.0338,-0.0334,-0.0331,-0.0317,-0.037,0,0,0,0,0,-0.0286,-0.0279,-0.0285,-0.0274,-0.0275,-0.0287,-0.0288,-0.0295,-0.0302,-0.0305,-0.0318,-0.033,-0.0337,-0.034,-0.0349,-0.0347,-0.0365,-0.0344,-0.0341,-0.0338,-0.0329,-0.0349,-0.0347,-0.0372,-0.0372,-0.0372,0,0,-0.0277,-0.0278,-0.0273,-0.0272,-0.0275,-0.0265,-0.0288,-0.0284,-0.0277,-0.0307,-0.0301,-0.0319,-0.0334,-0.0332,-0.0334,-0.0341,-0.0341,-0.0337,-0.0334,-0.0326,-0.0348,-0.0346,-0.0344,-0.0372,-0.0372,-0.0372,0,0,-0.0252,-0.0256,-0.024,-0.0242,-0.0244,-0.0248,-0.0246,-0.0254,-0.0259,-0.0258,-0.0278,-0.0288,-0.0299,-0.0308,-0.0313,-0.0297,-0.0323,-0.0302,-0.0272,-0.0292,-0.029,-0.0289,-0.0311,-0.0311,-0.0299,-0.0299,-0.0299,0,-0.024,-0.0222,-0.0236,-0.0222,-0.0216,-0.0237,-0.0217,-0.0224,-0.0233,-0.0234,-0.0249,-0.0269,-0.0285,-0.0281,-0.0276,-0.0289,-0.0306,-0.0285,-0.0287,-0.0286,-0.0285,-0.0308,-0.031,-0.0297,-0.0297,-0.0297,-0.0298,0,-0.0205,-0.0192,-0.0181,-0.0169,-0.0165,-0.0152,-0.0161,-0.0162,-0.0174,-0.0184,-0.0189,-0.0216,-0.0227,-0.0237,-0.0251,-0.025,-0.0267,-0.0282,-0.0296,-0.028,-0.0306,-0.0308,-0.0294,-0.0295,-0.0295,-0.0296,0,0,-0.0167,-0.0158,-0.0152,-0.0138,-0.0135,-0.0124,-0.0114,-0.0107,-0.0098,-0.0122,-0.0114,-0.0137,-0.0162,-0.017,-0.0195,-0.0213,-0.0227,-0.024,-0.0243,-0.0259,-0.0274,-0.0293,-0.0298,-0.0245,-0.0245,-0.0245,-0.0295,0,-0.0131,-0.0095,-0.0099,-0.006,-0.004,-0.0055,-0.004,-0.0042,-0.0053,-0.0055,-0.0091,-0.0096,-0.0133,-0.014,-0.0163,-0.0208,-0.023,-0.0212,-0.0289,-0.0291,-0.0308,-0.03,-0.0312,-0.0357,-0.0297,-0.0298,-0.0298,0,-0.0087,-0.007,-0.0028,-0.0003,0.0005,0.0022,0.0041,0.0049,0.0034,0.0022,0.0001,-0.0029,-0.0055,-0.0094,-0.0162,-0.015,-0.0205,-0.0246,-0.0249,-0.0281,-0.0314,-0.0364,-0.0364,-0.0518,-0.0302,-0.0301,-0.0301,0,-0.0046,-0.0014,0.0022,0.003,0.005,0.0065,0.0074,0.0072,0.0086,0.0066,0.0073,0.0026,0.001,-0.0063,-0.0148,-0.0156,-0.0229,-0.0254,-0.0324,-0.0327,-0.0357,-0.0362,-0.0512,-0.0304,-0.0304,-0.0304,-0.0304,0,0.0001,0.0031,0.0042,0.0063,0.0107,0.0103,0.0143,0.0139,0.0142,0.0172,0.0113,0.0127,0.0018,-0.0036,-0.0127,-0.0228,-0.0216,-0.0314,-0.0338,-0.0344,-0.0347,-0.0499,-0.0583,-0.0306,-0.0305,-0.0305,-0.0304,0,0.0044,0.0051,0.0093,0.0117,0.0128,0.0158,0.0189,0.0216,0.0208,0.0243,0.0242,0.0202,0.0133,0.0017,-0.0099,-0.0192,-0.0387,-0.0335,-0.0335,-0.0357,-0.0567,-0.0648,-0.082,-0.0891,-0.0421,-0.0422,-0.0423,0,0.007,0.0096,0.0134,0.0163,0.0175,0.0212,0.0244,0.0248,0.0286,0.03,0.0332,0.0273,0.0255,0.0068,-0.011,-0.0279,-0.0418,-0.041,-0.0429,-0.058,-0.0688,-0.0753,-0.0804,-0.0458,-0.0459,-0.046,-0.046,0,0.012,0.013,0.0164,0.022,0.0259,0.0305,0.0352,0.0393,0.0411,0.0442,0.0481,0.0464,0.0287,0.0119,-0.0126,-0.0257,-0.0537,-0.043,-0.059,-0.073,-0.0808,-0.0886,-0.0429,-0.0467,-0.0466,-0.0466,-0.0465,-0.0465,0.0158,0.0188,0.0231,0.0288,0.0334,0.0398,0.0442,0.0502,0.0568,0.062,0.0602,0.0584,0.032,-0.0009,-0.0205,-0.0596,-0.0591,-0.0714,-0.0798,-0.085,-0.0925,-0.048,-0.0542,-0.0542,-0.0542,-0.0542,-0.0541,0,0.0213,0.0244,0.0298,0.0363,0.042,0.0433,0.052,0.0561,0.0648,0.0688,0.0715,0.0551,0.0228,-0.0124,-0.0619,-0.0901,-0.1014,-0.1076,-0.1183,-0.1216,-0.0824,-0.0832,-0.0956,-0.0956,-0.0955,-0.0955,-0.0955,-0.0955,0.0243,0.0305,0.033,0.0429,0.0472,0.0536,0.0585,0.0644,0.0684,0.0696,0.0662,0.0618,0.0279,-0.0517,-0.1144,-0.1287,-0.1508,-0.156,-0.1662,-0.1411,-0.1383,-0.1357,-0.1386,-0.1623,-0.1624,-0.2017,-0.2021,-0.2025]}],[{"header":{"parameterUnit":"m.s-1","parameterCategory":2,"la1":30.2991,"la2":30.254,"lo1":-89.0895,"lo2":-89.0444,"dy":0.0017,"dx":0.0017,"nx":28,"ny":28,"refTime":"2024-12-06T09:00:00:Z","depth":"2","parameterNumber":2,"parameterNumberName":"U-component_of_CURRENTS"},"data":[0,0,0,0,0,0,0,0,0,0,0,0,0,0,0,0,0,0,0,0,0,0,0,0,0,0,0,0,0,0,0,0,0,0,0,0,0,0,0,0,0,0,0,0,0,0,0,0,0,0,0,0,0,0,0,0,0,0,0.2019,0.2019,0,0.2009,0.2009,0.2009,0.2001,0.2002,0.2002,0.2002,0.1986,0.1985,0.1985,0,0,0,0,0,0,0,0,0,0,0,0,0,0.204,0.204,0.2019,0.2019,0.2019,0.2009,0.2009,0.2009,0.2001,0.2002,0.2002,0.2002,0.1986,0.1985,0.1985,0,0,0,0,0,0,0,0,0,0,0,0,0,0.2029,0.204,0.2019,0.2016,0.2016,0.2009,0.2009,0.2009,0.2001,0.2002,0.2002,0.2002,0.1986,0.1986,0.1985,0.1977,0,0,0.1982,0.1982,0,0,0,0,0,0,0,0,0.203,0.2028,0.2016,0.2016,0.2016,0.2008,0.2011,0.1998,0.2001,0.2005,0.2002,0.2002,0.1994,0.1992,0.1988,0.1976,0.1976,0.1982,0.1982,0.1982,0.1981,0,0,0,0,0,0,0,0.2031,0.2029,0.2014,0.2016,0.2016,0.2018,0.2016,0.2008,0.1997,0.2005,0.2005,0.2006,0.1993,0.1989,0.1988,0.1975,0.1982,0.1982,0.1981,0.1981,0.1988,0.1989,0,0,0,0,0,0,0.2035,0.2029,0.2014,0.2013,0.2025,0.2017,0.2015,0.2009,0.1998,0.1996,0.2006,0.2006,0.199,0.1988,0.1987,0.2007,0.1982,0.1981,0.198,0.1987,0.1988,0.1989,0,0,0,0,0,0,0.2035,0.2033,0.2014,0.2023,0.2021,0.2017,0.201,0.2009,0.201,0.1999,0.1997,0.2009,0.199,0.1988,0.1989,0.2005,0.1981,0.198,0.1987,0.1988,0.1989,0.2028,0,0,0,0,0,0,0.2035,0.2033,0.203,0.2023,0.2021,0.202,0.201,0.2009,0.2011,0.2011,0.2001,0.1999,0.199,0.199,0.1988,0.2004,0.1979,0.1986,0.1987,0.1988,0.2026,0.203,0.2034,0,0,0,0,0,0.2036,0.2029,0.2029,0.2028,0.2016,0.202,0.202,0.2016,0.2011,0.2016,0.2009,0.2,0.1997,0.199,0.1987,0.2003,0.1985,0.1987,0.1988,0.2024,0.2029,0.2034,0,0,0,0,0,0,0.2026,0.2028,0.2028,0.2019,0.2026,0.202,0.2022,0.202,0.2017,0.2015,0.2003,0.2002,0.201,0.2,0.1993,0.2009,0.1991,0.1992,0.2019,0.2024,0.2028,0.2027,0.1979,0,0,0,0,0,0.2025,0.2026,0.2029,0.2023,0.2028,0.2026,0.2027,0.2027,0.2024,0.2023,0.2015,0.201,0.2013,0.2013,0.2009,0.2015,0.202,0.2025,0.2029,0.2032,0.203,0.2056,0.2063,0.1994,0.1994,0.1994,0,0,0.2016,0.202,0.2017,0.2022,0.2025,0.2033,0.2027,0.2032,0.2038,0.2021,0.2024,0.2022,0.2017,0.2026,0.2029,0.2021,0.2057,0.2034,0.2037,0.2033,0.2059,0.2065,0.2071,0.1995,0.1994,0.1994,0,0,0.2008,0.2007,0.2011,0.2022,0.2035,0.2038,0.2043,0.2045,0.2047,0.2051,0.2046,0.2054,0.2047,0.2053,0.2054,0.2077,0.2077,0.2078,0.2098,0.2124,0.213,0.2135,0.2163,0.217,0.2081,0.2081,0.2081,0,0.1997,0.2004,0.2013,0.2026,0.2035,0.2043,0.2053,0.2058,0.2058,0.2066,0.2057,0.2067,0.2061,0.2084,0.2091,0.2087,0.2101,0.2081,0.213,0.2135,0.214,0.2167,0.2174,0.2083,0.2083,0.2083,0.2083,0,0.1999,0.2007,0.2012,0.2033,0.2044,0.2055,0.2069,0.208,0.2084,0.2089,0.2109,0.2105,0.2115,0.2118,0.2108,0.2143,0.2143,0.2133,0.2119,0.2149,0.2175,0.2183,0.2086,0.2085,0.2085,0.2084,0,0,0.1965,0.2006,0.2007,0.2024,0.2051,0.206,0.2081,0.2105,0.2124,0.2128,0.2153,0.2157,0.2161,0.2162,0.2162,0.2179,0.2226,0.217,0.217,0.2199,0.2291,0.2302,0.231,0.2228,0.2229,0.223,0.23,0,0.1964,0.1993,0.2012,0.2036,0.2053,0.2077,0.2098,0.2121,0.214,0.2167,0.2178,0.2198,0.2178,0.2191,0.2207,0.2223,0.2245,0.2208,0.2254,0.2255,0.2264,0.2319,0.2107,0.2152,0.2307,0.2308,0.2309,0,0.1959,0.1983,0.2008,0.2052,0.2061,0.2076,0.2121,0.2143,0.2186,0.2203,0.223,0.224,0.2273,0.2248,0.2296,0.2276,0.2284,0.2291,0.2294,0.2293,0.228,0.2144,0.216,0.2321,0.232,0.2319,0.2318,0,0.1939,0.1979,0.2002,0.2015,0.2063,0.2079,0.2106,0.215,0.2179,0.2231,0.2262,0.2295,0.2326,0.2339,0.236,0.2333,0.2413,0.2379,0.2398,0.2399,0.222,0.2204,0.2411,0.2411,0.2411,0.241,0.241,0,0.1931,0.1948,0.1994,0.2006,0.2035,0.2072,0.2107,0.2144,0.2201,0.2246,0.228,0.2329,0.2351,0.2398,0.2393,0.2435,0.2447,0.2416,0.2424,0.223,0.2215,0.2354,0.2346,0.2413,0.2413,0.2412,0.2412,0,0.1901,0.1934,0.1962,0.2011,0.2025,0.2045,0.2103,0.2135,0.2196,0.2261,0.2283,0.2371,0.2441,0.2466,0.2509,0.2493,0.2518,0.2524,0.2305,0.2286,0.2473,0.2467,0.255,0.2551,0.2552,0.2553,0.2553,0,0.1888,0.1901,0.1952,0.197,0.199,0.2025,0.2052,0.2118,0.2164,0.2288,0.2326,0.2425,0.2486,0.257,0.255,0.2563,0.2576,0.2381,0.229,0.2492,0.2491,0.2482,0.2475,0.2065,0.2062,0.2059,0.2057,0,0.1862,0.1882,0.1908,0.1942,0.197,0.1998,0.2051,0.2083,0.2177,0.2239,0.2345,0.2407,0.2503,0.2432,0.2467,0.244,0.2361,0.233,0.2591,0.2081,0.2045,0.2041,0.2047,0.2032,0.2034,0.2036,0.2037,0.2038,0.1839,0.1848,0.1883,0.1911,0.1942,0.1963,0.1962,0.2022,0.2076,0.2126,0.2262,0.2257,0.2296,0.2239,0.2195,0.2148,0.2308,0.2172,0.2175,0.2183,0.2133,0.2102,0.209,0.2093,0.2095,0.2097,0.2099,0,0.1795,0.1822,0.1851,0.1872,0.1867,0.1909,0.1952,0.1914,0.1929,0.1988,0.2031,0.1871,0.1854,0.1881,0.1782,0.1824,0.1749,0.1742,0.1597,0.1625,0.165,0.1566,0.1376,0.1373,0.1371,0.1369,0,0,0.1775,0.1779,0.1792,0.1777,0.1794,0.175,0.175,0.171,0.1711,0.1645,0.1605,0.1717,0.1815,0.1537,0.1541,0.1434,0.1505,0.1382,0.1967,0.1823,0.1843,0.1915,0.1823,0,0,0,0,0]},{"header":{"parameterUnit":"m.s-1","parameterCategory":2,"la1":30.2991,"la2":30.254,"lo1":-89.0895,"lo2":-89.0444,"dy":0.0017,"dx":0.0017,"nx":28,"ny":28,"refTime":"2024-12-06T09:00:00:Z","depth":"2","parameterNumber":3,"parameterNumberName":"V-component_of_CURRENTS"},"data":[0,0,0,0,0,0,0,0,0,0,0,0,0,0,0,0,0,0,0,0,0,0,0,0,0,0,0,0,0,0,0,0,0,0,0,0,0,0,0,0,0,0,0,0,0,0,0,0,0,0,0,0,0,0,0,0,0,0,-0.0194,-0.0194,0,-0.0215,-0.0215,-0.0215,-0.0235,-0.0235,-0.0236,-0.0236,-0.0266,-0.0266,-0.0267,0,0,0,0,0,0,0,0,0,0,0,0,0,-0.0202,-0.0202,-0.0194,-0.0194,-0.0194,-0.0215,-0.0215,-0.0215,-0.0235,-0.0235,-0.0236,-0.0236,-0.0265,-0.0266,-0.0267,0,0,0,0,0,0,0,0,0,0,0,0,0,-0.0209,-0.0202,-0.0194,-0.0207,-0.0208,-0.0215,-0.0215,-0.0215,-0.0235,-0.0235,-0.0236,-0.0236,-0.0265,-0.0266,-0.0267,-0.0266,0,0,-0.027,-0.027,0,0,0,0,0,0,0,0,-0.0208,-0.0208,-0.0204,-0.0206,-0.0207,-0.0222,-0.0229,-0.0233,-0.0235,-0.0225,-0.0236,-0.0236,-0.0252,-0.0254,-0.0257,-0.0267,-0.0269,-0.027,-0.027,-0.0271,-0.0271,0,0,0,0,0,0,0,-0.0208,-0.0208,-0.0203,-0.0205,-0.0206,-0.0222,-0.0223,-0.023,-0.0237,-0.0226,-0.0227,-0.0229,-0.0252,-0.0256,-0.0258,-0.0269,-0.027,-0.0271,-0.0271,-0.0271,-0.028,-0.028,0,0,0,0,0,0,-0.0202,-0.0207,-0.0202,-0.0203,-0.0208,-0.0221,-0.0222,-0.0217,-0.0236,-0.024,-0.0229,-0.023,-0.0255,-0.0257,-0.0259,-0.0252,-0.0271,-0.0271,-0.0272,-0.028,-0.028,-0.028,0,0,0,0,0,0,-0.0202,-0.0201,-0.0201,-0.0206,-0.0207,-0.022,-0.0215,-0.0218,-0.0222,-0.0238,-0.0242,-0.0231,-0.0255,-0.0258,-0.0262,-0.0254,-0.0272,-0.0273,-0.0281,-0.028,-0.028,-0.0242,0,0,0,0,0,0,-0.0202,-0.0201,-0.0198,-0.0205,-0.0206,-0.02,-0.0215,-0.0218,-0.0223,-0.0224,-0.0241,-0.0244,-0.0255,-0.0261,-0.0263,-0.0255,-0.0273,-0.0281,-0.028,-0.028,-0.0244,-0.0241,-0.0238,0,0,0,0,0,-0.0203,-0.0192,-0.0197,-0.0197,-0.02,-0.02,-0.0201,-0.0213,-0.0222,-0.022,-0.0232,-0.0244,-0.0259,-0.0261,-0.0264,-0.0256,-0.0281,-0.0281,-0.028,-0.0245,-0.0241,-0.0238,0,0,0,0,0,0,-0.019,-0.0193,-0.0199,-0.0189,-0.0193,-0.0203,-0.0201,-0.0211,-0.0219,-0.0221,-0.0239,-0.0242,-0.0244,-0.0255,-0.0257,-0.0257,-0.0272,-0.0272,-0.0245,-0.0242,-0.0238,-0.0225,-0.0274,0,0,0,0,0,-0.0186,-0.018,-0.0186,-0.0178,-0.0178,-0.019,-0.0193,-0.02,-0.0207,-0.0211,-0.0224,-0.0236,-0.0243,-0.0246,-0.0255,-0.0253,-0.027,-0.0251,-0.0248,-0.0245,-0.0237,-0.0257,-0.0255,-0.0277,-0.0277,-0.0277,0,0,-0.0179,-0.018,-0.0176,-0.0175,-0.0179,-0.017,-0.0192,-0.0191,-0.0184,-0.0213,-0.0208,-0.0226,-0.0241,-0.0239,-0.0241,-0.0247,-0.0249,-0.0245,-0.0242,-0.0235,-0.0256,-0.0254,-0.0252,-0.0277,-0.0277,-0.0277,0,0,-0.0156,-0.0161,-0.0147,-0.0148,-0.0151,-0.0156,-0.0154,-0.0163,-0.0168,-0.0168,-0.0187,-0.0198,-0.0209,-0.0217,-0.0222,-0.0207,-0.0233,-0.0213,-0.0185,-0.0204,-0.0203,-0.0201,-0.0223,-0.0224,-0.021,-0.021,-0.021,0,-0.0146,-0.013,-0.0143,-0.013,-0.0124,-0.0146,-0.0126,-0.0134,-0.0144,-0.0144,-0.0161,-0.018,-0.0196,-0.0192,-0.0188,-0.02,-0.0217,-0.0197,-0.02,-0.0199,-0.0198,-0.0221,-0.0223,-0.0208,-0.0208,-0.0208,-0.0209,0,-0.0114,-0.0102,-0.0093,-0.0081,-0.0077,-0.0065,-0.0073,-0.0075,-0.0088,-0.0097,-0.0104,-0.0131,-0.0141,-0.0151,-0.0164,-0.0164,-0.0181,-0.0195,-0.0208,-0.0194,-0.0219,-0.0221,-0.0205,-0.0206,-0.0207,-0.0207,0,0,-0.0081,-0.0071,-0.0066,-0.0051,-0.0049,-0.0038,-0.0029,-0.0022,-0.0014,-0.0039,-0.0031,-0.0055,-0.0079,-0.0087,-0.0112,-0.0129,-0.0145,-0.0156,-0.0158,-0.0175,-0.0191,-0.0211,-0.0215,-0.0162,-0.0162,-0.0162,-0.0212,0,-0.0047,-0.0012,-0.0016,0.0022,0.0042,0.0028,0.0042,0.0041,0.0029,0.0028,-0.0008,-0.0014,-0.0051,-0.0059,-0.0082,-0.0126,-0.0148,-0.013,-0.0205,-0.0207,-0.0224,-0.0218,-0.0181,-0.0223,-0.0215,-0.0215,-0.0215,0,-0.0007,0.0011,0.0052,0.0078,0.0086,0.0102,0.0122,0.0129,0.0115,0.0103,0.0081,0.0051,0.0025,-0.0014,-0.0082,-0.007,-0.0124,-0.0165,-0.0168,-0.0198,-0.023,-0.0236,-0.0228,-0.0219,-0.0219,-0.0219,-0.0218,0,0.0032,0.0064,0.01,0.0108,0.0129,0.0143,0.0152,0.015,0.0166,0.0145,0.0151,0.0105,0.0089,0.0016,-0.0069,-0.0077,-0.0149,-0.0172,-0.0243,-0.0245,-0.0234,-0.0235,-0.0223,-0.0223,-0.0223,-0.0223,-0.0223,0,0.0076,0.0106,0.0118,0.0138,0.0183,0.018,0.0218,0.0215,0.0219,0.0249,0.019,0.0204,0.0095,0.0042,-0.0048,-0.0148,-0.0136,-0.0234,-0.0257,-0.0221,-0.0221,-0.0232,-0.0232,-0.0225,-0.0224,-0.0224,-0.0224,0,0.0117,0.0124,0.0166,0.0191,0.0203,0.0231,0.0264,0.0292,0.0283,0.0319,0.0317,0.0277,0.0208,0.0094,-0.0021,-0.0114,-0.0214,-0.0255,-0.0207,-0.0224,-0.0304,-0.0302,-0.0339,-0.034,-0.0341,-0.0342,-0.0342,0,0.0142,0.0167,0.0206,0.0235,0.0247,0.0284,0.0317,0.0322,0.036,0.0374,0.0407,0.0347,0.0329,0.0144,-0.0023,-0.0188,-0.0217,-0.028,-0.0292,-0.0296,-0.0315,-0.0312,-0.0308,-0.0265,-0.0265,-0.0265,-0.0265,0,0.0191,0.0201,0.0235,0.029,0.0329,0.0376,0.0423,0.0465,0.0484,0.0516,0.0553,0.0535,0.0368,0.022,-0.0019,-0.0132,-0.0253,-0.0286,-0.0296,-0.0242,-0.0231,-0.0248,-0.0246,-0.0264,-0.0264,-0.0264,-0.0264,-0.0264,0.0228,0.0258,0.03,0.0356,0.0403,0.0467,0.0512,0.0578,0.0645,0.0705,0.0676,0.0656,0.0474,0.0188,-0.0017,-0.0244,-0.0243,-0.0322,-0.032,-0.0319,-0.0302,-0.0293,-0.0335,-0.0336,-0.0336,-0.0336,-0.0337,0,0.0286,0.0312,0.0366,0.0429,0.0491,0.0499,0.0587,0.065,0.0745,0.0784,0.0812,0.0668,0.0477,0.025,-0.0073,-0.0272,-0.028,-0.0343,-0.03,-0.0299,-0.0298,-0.028,-0.0308,-0.0308,-0.0309,-0.0309,0,0,0.0317,0.038,0.0405,0.0503,0.0541,0.0624,0.0674,0.078,0.0835,0.0898,0.0882,0.0826,0.055,0.0328,0.0065,-0.0126,-0.0174,-0.0167,-0.0168,-0.0086,-0.0083,-0.0262,-0.0229,0,0,0,0,0]}],[{"header":{"parameterUnit":"m.s-1","parameterCategory":2,"la1":30.2991,"la2":30.254,"lo1":-89.0895,"lo2":-89.0444,"dy":0.0017,"dx":0.0017,"nx":28,"ny":28,"refTime":"2024-12-06T09:00:00:Z","depth":"4","parameterNumber":2,"parameterNumberName":"U-component_of_CURRENTS"},"data":[0,0,0,0,0,0,0,0,0,0,0,0,0,0,0,0,0,0,0,0,0,0,0,0,0,0,0,0,0,0,0,0,0,0,0,0,0,0,0,0,0,0,0,0,0,0,0,0,0,0,0,0,0,0,0,0,0,0,0.1259,0.126,0,0.1302,0.1302,0.1302,0.1342,0.1343,0.1344,0.1344,0.1388,0.1389,0.139,0,0,0,0,0,0,0,0,0,0,0,0,0,0.1186,0.1187,0.1259,0.126,0.1261,0.1301,0.1302,0.1302,0.1342,0.1343,0.1344,0.1345,0.1388,0.1389,0.139,0,0,0,0,0,0,0,0,0,0,0,0,0,0.1221,0.1188,0.1259,0.1287,0.129,0.1301,0.1302,0.1302,0.1342,0.1343,0.1344,0.1345,0.1388,0.1389,0.139,0.1375,0,0,0.1392,0.1393,0,0,0,0,0,0,0,0,0.1219,0.1223,0.1282,0.1285,0.1288,0.1319,0.1293,0.1327,0.1342,0.132,0.1344,0.1345,0.1366,0.1369,0.1372,0.1377,0.1379,0.1392,0.1393,0.1393,0.1393,0,0,0,0,0,0,0,0.1216,0.1221,0.1274,0.1283,0.1287,0.1288,0.1294,0.1299,0.1336,0.1322,0.1326,0.1333,0.1368,0.1371,0.1373,0.138,0.1392,0.1393,0.1394,0.1394,0.1463,0.1465,0,0,0,0,0,0,0.1215,0.1219,0.1273,0.1276,0.1257,0.1289,0.1295,0.1307,0.1336,0.1342,0.1332,0.1335,0.1369,0.1372,0.1375,0.144,0.1393,0.1394,0.1394,0.1462,0.1464,0.1465,0,0,0,0,0,0,0.1213,0.122,0.1271,0.1249,0.1256,0.1289,0.1302,0.1307,0.1341,0.1343,0.1349,0.1364,0.137,0.1374,0.1408,0.1439,0.1394,0.1395,0.146,0.1463,0.1464,0.1519,0,0,0,0,0,0,0.1211,0.1219,0.124,0.125,0.1258,0.1299,0.1301,0.1307,0.1343,0.1348,0.1372,0.1375,0.1371,0.1407,0.1409,0.144,0.1396,0.1459,0.1461,0.1464,0.1516,0.1523,0.1529,0,0,0,0,0,0.1208,0.1229,0.1241,0.1248,0.1282,0.13,0.1305,0.1329,0.1344,0.1363,0.1383,0.1376,0.1425,0.1409,0.1411,0.1443,0.1458,0.1461,0.1464,0.1513,0.1522,0.1529,0,0,0,0,0,0,0.1211,0.1235,0.1248,0.1278,0.1298,0.1308,0.1333,0.1345,0.1375,0.1389,0.139,0.1395,0.1437,0.1432,0.1414,0.147,0.1441,0.1445,0.1478,0.1486,0.1493,0.149,0.1396,0,0,0,0,0,0.122,0.1245,0.1263,0.129,0.1303,0.1323,0.134,0.1356,0.1376,0.1392,0.1409,0.1428,0.1445,0.1461,0.1472,0.15,0.1498,0.1523,0.153,0.1536,0.1535,0.156,0.1568,0.1475,0.1475,0.1475,0,0,0.1228,0.1247,0.1262,0.1293,0.1313,0.1334,0.1337,0.1371,0.1395,0.1391,0.1439,0.1453,0.1458,0.1493,0.1512,0.1497,0.1564,0.1539,0.1544,0.154,0.1564,0.1573,0.1581,0.1477,0.1477,0.1476,0,0,0.1245,0.1276,0.1298,0.1318,0.1354,0.1364,0.138,0.1408,0.1433,0.147,0.1478,0.1511,0.1537,0.1548,0.1555,0.1604,0.1598,0.1616,0.1648,0.1673,0.168,0.1687,0.1705,0.1713,0.1619,0.162,0.162,0,0.1257,0.1286,0.1308,0.1332,0.1354,0.138,0.1405,0.1429,0.1467,0.1488,0.1497,0.1551,0.156,0.1597,0.1619,0.1619,0.1631,0.1617,0.1681,0.1687,0.1693,0.171,0.1718,0.1623,0.1622,0.1622,0.1622,0,0.1278,0.1313,0.133,0.1369,0.1393,0.1423,0.1452,0.1489,0.1522,0.1541,0.1597,0.1614,0.1645,0.1658,0.1654,0.1705,0.17,0.1686,0.1659,0.1706,0.1721,0.1729,0.1627,0.1626,0.1625,0.1624,0,0,0.1271,0.1333,0.1342,0.1367,0.1417,0.1435,0.1485,0.1527,0.1564,0.1608,0.1653,0.1692,0.171,0.1719,0.1727,0.175,0.1806,0.1743,0.1742,0.1758,0.1865,0.1758,0.1756,0.1809,0.181,0.1811,0.1863,0,0.1284,0.1332,0.1361,0.141,0.1435,0.1477,0.1517,0.1562,0.1605,0.1655,0.1687,0.1734,0.173,0.1759,0.1783,0.1802,0.1827,0.1794,0.182,0.182,0.1716,0.1761,0.1816,0.1868,0.187,0.1871,0.1872,0,0.1287,0.1322,0.1371,0.1433,0.145,0.1485,0.1555,0.1596,0.1664,0.17,0.1752,0.1779,0.1833,0.1819,0.1877,0.186,0.187,0.1876,0.1878,0.176,0.1725,0.1809,0.1884,0.1883,0.1882,0.1882,0.1881,0,0.1256,0.1325,0.1367,0.1389,0.1462,0.1501,0.1546,0.1615,0.1655,0.1738,0.1778,0.1836,0.1881,0.1904,0.193,0.1914,0.198,0.1955,0.1867,0.186,0.1916,0.1908,0.199,0.199,0.199,0.199,0.199,0,0.124,0.1277,0.1363,0.1384,0.1438,0.1497,0.1559,0.1612,0.1691,0.1734,0.1805,0.1844,0.1907,0.195,0.1955,0.1935,0.2005,0.1876,0.1865,0.1939,0.1934,0.1922,0.1913,0.1992,0.1991,0.1991,0.1991,0,0.119,0.1251,0.1302,0.1392,0.1424,0.1463,0.156,0.1599,0.1689,0.1749,0.1782,0.1873,0.1924,0.197,0.2014,0.196,0.1955,0.193,0.202,0.2013,0.1811,0.1805,0.1826,0.1823,0.182,0.1817,0.1815,0,0.1165,0.119,0.1293,0.1326,0.1371,0.1442,0.1485,0.1584,0.1622,0.1747,0.1764,0.1857,0.1902,0.1876,0.1936,0.1939,0.1915,0.1901,0.1837,0.1807,0.1795,0.1793,0.1791,0.1811,0.181,0.1809,0.1809,0,0.1112,0.1163,0.1206,0.1275,0.133,0.1376,0.145,0.1466,0.1573,0.1673,0.1696,0.172,0.1774,0.18,0.1823,0.182,0.19,0.1871,0.1876,0.1815,0.1788,0.1779,0.178,0.1799,0.18,0.1801,0.1802,0,0.1074,0.109,0.1157,0.1206,0.1272,0.129,0.1336,0.1378,0.1425,0.1557,0.1564,0.1658,0.1751,0.174,0.1761,0.1753,0.1718,0.165,0.1665,0.1677,0.1605,0.1548,0.1478,0,0,0,0,0,0.1024,0.1037,0.1081,0.1125,0.1186,0.1222,0.1302,0.135,0.1454,0.1427,0.1488,0.1525,0.1552,0.1608,0.1568,0.1707,0.1733,0.1654,0.1665,0.1744,0.1755,0.1684,0,0,0,0,0,0,0.0992,0.1031,0.105,0.1049,0.1064,0.1112,0.1157,0.1226,0.1216,0.1327,0.1348,0.1436,0.1486,0.1555,0.1539,0.1556,0.1532,0.172,0.1716,0.1738,0.1748,0.1757,0.1688,0,0,0,0,0]},{"header":{"parameterUnit":"m.s-1","parameterCategory":2,"la1":30.2991,"la2":30.254,"lo1":-89.0895,"lo2":-89.0444,"dy":0.0017,"dx":0.0017,"nx":28,"ny":28,"refTime":"2024-12-06T09:00:00:Z","depth":"4","parameterNumber":3,"parameterNumberName":"V-component_of_CURRENTS"},"data":[0,0,0,0,0,0,0,0,0,0,0,0,0,0,0,0,0,0,0,0,0,0,0,0,0,0,0,0,0,0,0,0,0,0,0,0,0,0,0,0,0,0,0,0,0,0,0,0,0,0,0,0,0,0,0,0,0,0,0.0136,0.0135,0,0.0109,0.0109,0.0109,0.0096,0.0096,0.0096,0.0096,0.008,0.008,0.0079,0,0,0,0,0,0,0,0,0,0,0,0,0,0.0169,0.0169,0.0136,0.0135,0.0135,0.0109,0.0109,0.0109,0.0096,0.0096,0.0096,0.0096,0.008,0.008,0.0079,0,0,0,0,0,0,0,0,0,0,0,0,0,0.0151,0.0169,0.0136,0.0125,0.0124,0.011,0.0109,0.0109,0.0096,0.0096,0.0096,0.0096,0.008,0.008,0.0079,0.0076,0,0,0.0077,0.0077,0,0,0,0,0,0,0,0,0.0152,0.0149,0.0127,0.0126,0.0125,0.0106,0.0115,0.0098,0.0096,0.0107,0.0096,0.0096,0.0089,0.0088,0.0084,0.0075,0.0075,0.0077,0.0077,0.0077,0.0076,0,0,0,0,0,0,0,0.0153,0.015,0.0126,0.0127,0.0125,0.012,0.0117,0.0112,0.0099,0.0106,0.0105,0.0102,0.0089,0.0084,0.0083,0.0075,0.0077,0.0077,0.0076,0.0076,0.0055,0.0055,0,0,0,0,0,0,0.0156,0.0152,0.0127,0.0125,0.0138,0.0119,0.0117,0.0112,0.0099,0.0097,0.0102,0.0101,0.0085,0.0084,0.0083,0.0078,0.0077,0.0076,0.0076,0.0055,0.0055,0.0055,0,0,0,0,0,0,0.0156,0.0154,0.0128,0.0137,0.0134,0.0119,0.0114,0.0112,0.0107,0.0096,0.0094,0.0099,0.0085,0.0083,0.0079,0.0077,0.0076,0.0075,0.0055,0.0055,0.0055,0.0069,0,0,0,0,0,0,0.0158,0.0154,0.0152,0.0138,0.0133,0.0121,0.0114,0.0111,0.0104,0.0103,0.0093,0.0091,0.0085,0.008,0.0078,0.0076,0.0075,0.0056,0.0055,0.0055,0.0069,0.0069,0.0069,0,0,0,0,0,0.0159,0.0156,0.0152,0.0149,0.0131,0.0121,0.0119,0.0108,0.0104,0.0103,0.0096,0.0091,0.0076,0.0079,0.0077,0.0075,0.0056,0.0055,0.0055,0.0068,0.0069,0.0069,0,0,0,0,0,0,0.0168,0.0154,0.0149,0.0142,0.0133,0.0119,0.0116,0.0109,0.0102,0.0101,0.0092,0.009,0.0084,0.0077,0.0081,0.0067,0.0064,0.0063,0.0075,0.0075,0.0076,0.0086,0.0074,0,0,0,0,0,0.0169,0.0165,0.0151,0.0146,0.0143,0.013,0.0124,0.0118,0.0109,0.0105,0.0097,0.0087,0.008,0.0076,0.0069,0.0064,0.0052,0.006,0.006,0.0061,0.0067,0.0046,0.0045,0.0053,0.0053,0.0053,0,0,0.0171,0.0163,0.016,0.0148,0.0141,0.014,0.0127,0.012,0.012,0.0105,0.0102,0.0089,0.0079,0.0072,0.0069,0.0068,0.0051,0.006,0.0061,0.0067,0.0045,0.0044,0.0044,0.0053,0.0053,0.0053,0,0,0.0176,0.0166,0.0167,0.0162,0.0152,0.0146,0.0145,0.0131,0.0126,0.0119,0.0108,0.0095,0.0084,0.0075,0.007,0.0067,0.0053,0.0062,0.0074,0.0053,0.0052,0.0051,0.0032,0.0029,0.0063,0.0063,0.0063,0,0.0178,0.0179,0.0166,0.0166,0.0168,0.0151,0.0157,0.0148,0.0134,0.0132,0.0121,0.01,0.0086,0.0081,0.0077,0.0069,0.0056,0.0074,0.0054,0.0053,0.0052,0.0032,0.0029,0.0063,0.0063,0.0063,0.0063,0,0.0186,0.0187,0.0188,0.0187,0.0186,0.0187,0.0177,0.0172,0.0162,0.0152,0.014,0.0117,0.0106,0.0094,0.0085,0.0072,0.0064,0.0057,0.0055,0.0052,0.0031,0.0027,0.0064,0.0064,0.0064,0.0064,0,0,0.0192,0.0194,0.0195,0.0206,0.0199,0.0204,0.0202,0.02,0.0206,0.0178,0.0181,0.0151,0.0135,0.0127,0.0108,0.0086,0.006,0.007,0.0069,0.0054,0.0014,0.001,0.0005,0.0049,0.0048,0.0048,0.0,0,0.0205,0.022,0.0215,0.0236,0.0247,0.0237,0.0242,0.0236,0.0226,0.0221,0.0188,0.0181,0.0149,0.0144,0.0115,0.008,0.0053,0.0074,0.0015,0.0014,0.0013,0.0002,0.0046,-0.0002,-0.0003,-0.0004,-0.0004,0,0.022,0.023,0.0253,0.0273,0.0277,0.0286,0.03,0.03,0.0284,0.0274,0.0251,0.0228,0.0195,0.0167,0.0098,0.0113,0.0065,0.003,0.0027,0.0019,0.0004,0.0001,-0.0011,-0.001,-0.001,-0.0009,-0.0009,0,0.0246,0.0261,0.0286,0.0291,0.0305,0.0316,0.0322,0.0317,0.0328,0.0306,0.0312,0.0263,0.0247,0.0179,0.0104,0.0101,0.0027,0.0013,-0.0039,-0.004,-0.0027,-0.0026,-0.0042,-0.0041,-0.0041,-0.0041,-0.0041,0,0.0268,0.029,0.0302,0.0316,0.0351,0.0346,0.0378,0.0372,0.0374,0.0394,0.0343,0.0345,0.0249,0.0198,0.0119,0.0033,0.0035,-0.0037,-0.0052,-0.0021,-0.0019,-0.003,-0.0028,-0.0043,-0.0043,-0.0042,-0.0042,0,0.0296,0.0301,0.0335,0.0356,0.0366,0.039,0.0421,0.0443,0.0434,0.0457,0.0455,0.0408,0.0335,0.0238,0.013,0.0061,-0.0027,-0.0061,-0.0016,-0.0029,-0.0085,-0.0082,-0.0122,-0.0123,-0.0123,-0.0124,-0.0124,0,0.0312,0.0331,0.0369,0.0394,0.0405,0.0439,0.0466,0.0471,0.0497,0.0499,0.0516,0.0456,0.041,0.0259,0.0145,-0.0009,-0.0035,-0.0084,-0.0093,-0.0082,-0.0093,-0.0089,-0.0086,-0.0125,-0.0125,-0.0125,-0.0125,0,0.0346,0.036,0.0388,0.0435,0.0471,0.0512,0.0548,0.0572,0.0582,0.0581,0.0566,0.0482,0.04,0.0268,0.0147,0.0035,-0.0054,-0.009,-0.009,-0.0098,-0.0086,-0.0095,-0.0091,-0.0127,-0.0127,-0.0126,-0.0126,0,0.0375,0.04,0.0435,0.0475,0.0524,0.0566,0.0583,0.0608,0.0627,0.0623,0.0617,0.0517,0.0458,0.0291,0.0183,0.007,0.0035,-0.0009,-0.0014,-0.0013,0.0028,0.006,0.0051,0,0,0,0,0,0.04,0.0427,0.047,0.0512,0.056,0.0583,0.0633,0.0645,0.0657,0.0653,0.0634,0.0554,0.0387,0.0318,0.0204,0.0166,0.0012,0.0027,-0.0041,-0.0136,-0.0134,-0.0105,0,0,0,0,0,0,0.0418,0.0462,0.0474,0.0533,0.0563,0.0616,0.0646,0.0655,0.0652,0.0646,0.0564,0.0516,0.0359,0.045,0.0199,0.0165,0.0103,-0.005,-0.0053,-0.0137,-0.0135,-0.0133,-0.0104,0,0,0,0,0]}]]